TDRS 8

Last updated on Thu Dec 18 2025 00:02:41 GMT+0000 (Coordinated Universal Time)

1 26388U 00034A 25351.57219569 -.00000183 00000+0 00000+0 0 9995 2 26388 12.3960 32.8375 0004295 250.1875 94.3160 1.00271310 93354
UTC large
Height (km)
Speed (km/s)
/
Latitude / Longitude
Inclination (degrees)
Orbital Period (minutes)
Azimuth
Elevation
Range (km)
Doppler Factor

Next 0 passes for location: London (51.5072 / 0.1276)

Sorry there are no passes over London.